Погода в Чистовке

Россия / Самарская область     54°13′13″N   50°55′00″E
темп.,
°C
ветер,
м/с
пор.,
м/с
влажн.,
%
обл.,
%
осадки,
мм/ч
давл.,
гПа
погр.,
м
12 мая, ср
ср1201:00+18вюв115591 0.0 102611
04:00+16юв2263100 0.0 102612
07:00+18вюв2563100 0.0 1027147
10:00+22вюв454589 0.0 1027917
13:00+24юв573837 0.0 10272419
16:00+24юв563793 0.0 10262389
19:00+21ююв3753100 0.0 1026195
22:00+17юв225548 0.0 102719
13 мая, чт
чт1301:00+16вюв335783 0.0 102731
04:00+14вюв355862 0.0 102782
07:00+16вюв49595 0.0 1027266
10:00+21вюв684387 0.0 1026708
13:00+24ююв6837100 0.0 10261301
16:00+24юв673785 0.0 10251479
19:00+22юв5105139 0.0 1024280
22:00+17юв4115762 0.0 1024203
14 мая, пт
пт1401:00+16юв4105556 0.0 1024166
04:00+15юв41061100 0.1 1025155
07:00+16юв4116128 0.1 1025246
10:00+22ююв68425 0.1 1024515
13:00+26ю67355 0.0 10241111
16:00+27ю583234 0.0 10241817
19:00+23ю4848100 0.0 1023155
22:00+19ююв4115041 0.0 1023173
15 мая, сб
сб1501:00+17ююв345152 0.0 102347
04:00+16ююв355211 0.0 102376
07:00+18ююв395616 0.0 1023239
10:00+24ю69395 0.0 1023543
13:00+27ююз683152 0.0 10221172
16:00+28ююз57285 0.0 10211972
19:00+24ю36435 0.0 102086
22:00+20ю33460 0.0 102023
16 мая, вс
вс1601:00+18ююв33503 0.0 102026
04:00+17ююв34520 0.0 102039
07:00+19ююв39560 0.0 1020210
10:00+25ю58403 0.0 1019561
13:00+29ю68305 0.0 10192926
16:00+29ююз583027 0.0 10173250
19:00+24ююз344999 0.0 101752
22:00+21ю335392 0.0 101842